| time (UTC) | temp C | wind direction | speed KPH | gust KPH | rain 1hr cm | rain 24hr cm | rain mn cm | humidity % | barometer mb |
| 20260902164004 | 15 | 163 | 3.2 | 4.8 | 0.03 | 0.03 | 0.03 | 85 | 1006.5 |
| 20260902163504 | 15 | 158 | 3.2 | 8.0 | 0.03 | 0.03 | 0.03 | 85 | 1006.5 |
| 20260902163004 | 15 | 171 | 1.6 | 4.8 | 0.00 | 0.00 | 0.00 | 85 | 1006.4 |
| 20260902162504 | 15 | 174 | 3.2 | 8.0 | 0.00 | 0.00 | 0.00 | 85 | 1006.5 |
| 20260902162004 | 15 | 170 | 3.2 | 4.8 | 0.00 | 0.00 | 0.00 | 84 | 1006.4 |
| 20260902161504 | 15 | 202 | 1.6 | 3.2 | 0.00 | 0.00 | 0.00 | 84 | 1006.4 |
| 20260902161004 | 15 | 184 | 3.2 | 4.8 | 0.00 | 0.00 | 0.00 | 83 | 1006.4 |
| 20260902160504 | 15 | 173 | 3.2 | 4.8 | 0.00 | 0.00 | 0.00 | 82 | 1006.4 |
| 20260902160006 | 15 | 171 | 3.2 | 8.0 | 0.00 | 0.00 | 0.00 | 82 | 1006.4 |
| 20260902155504 | 15 | 215 | 3.2 | 4.8 | 0.00 | 0.00 | 0.00 | 82 | 1006.4 |
| 20260902155004 | 15 | 181 | 3.2 | 8.0 | 0.00 | 0.00 | 0.00 | 83 | 1006.4 |
| 20260902154504 | 15 | 159 | 1.6 | 8.0 | 0.00 | 0.00 | 0.00 | 82 | 1006.5 |
| 20260902154004 | 15 | 191 | 3.2 | 3.2 | 0.00 | 0.00 | 0.00 | 83 | 1006.5 |
| 20260902153504 | 15 | 173 | 1.6 | 4.8 | 0.00 | 0.00 | 0.00 | 84 | 1006.6 |
| 20260902152504 | 15 | 192 | 3.2 | 3.2 | 0.00 | 0.00 | 0.00 | 84 | 1006.7 |
| 20260902152005 | 15 | 188 | 1.6 | 3.2 | 0.00 | 0.00 | 0.00 | 84 | 1006.8 |
| 20260902151505 | 15 | 209 | 1.6 | 8.0 | 0.00 | 0.00 | 0.00 | 84 | 1006.8 |
| 20260902151005 | 15 | 190 | 3.2 | 9.7 | 0.00 | 0.00 | 0.00 | 84 | 1007.0 |
| 20260902150504 | 15 | 180 | 4.8 | 9.7 | 0.00 | 0.00 | 0.00 | 84 | 1007.0 |
| 20260902150004 | 15 | 199 | 4.8 | 8.0 | 0.00 | 0.00 | 0.00 | 84 | 1007.0 |
| 20260902145506 | 15 | 196 | 3.2 | 4.8 | 0.00 | 0.00 | 0.00 | 85 | 1007.0 |
| 20260902145004 | 15 | 189 | 3.2 | 3.2 | 0.00 | 0.00 | 0.00 | 85 | 1007.0 |
| 20260902144505 | 14 | 193 | 0.0 | 1.6 | 0.00 | 0.00 | 0.00 | 85 | 1007.0 |
| 20260902144004 | 14 | 193 | 1.6 | 3.2 | 0.00 | 0.00 | 0.00 | 86 | 1007.1 |
| 20260902143504 | 14 | 192 | 0.0 | 3.2 | 0.00 | 0.00 | 0.00 | 86 | 1007.1 |
| 20260902143004 | 14 | 223 | 1.6 | 3.2 | 0.00 | 0.00 | 0.00 | 86 | 1007.1 |
| 20260902142504 | 14 | 223 | 0.0 | 1.6 | 0.00 | 0.00 | 0.00 | 86 | 1007.1 |
| 20260902142004 | 14 | 223 | 1.6 | 3.2 | 0.00 | 0.00 | 0.00 | 86 | 1007.2 |
| 20260902141504 | 14 | 223 | 1.6 | 1.6 | 0.00 | 0.00 | 0.00 | 86 | 1007.3 |
| 20260902140504 | 14 | 223 | 0.0 | 3.2 | 0.00 | 0.00 | 0.00 | 86 | 1007.3 |
| 20260902140005 | 14 | 223 | 1.6 | 3.2 | 0.00 | 0.00 | 0.00 | 86 | 1007.3 |
| 20260902134504 | 14 | 223 | 1.6 | 3.2 | 0.00 | 0.00 | 0.00 | 86 | 1007.6 |
| 20260902134004 | 14 | 202 | 1.6 | 3.2 | 0.00 | 0.00 | 0.00 | 86 | 1007.6 |
| 20260902133004 | 14 | 148 | 0.0 | 0.0 | 0.00 | 0.00 | 0.00 | 86 | 1007.6 |
| 20260902132504 | 14 | 148 | 0.0 | 0.0 | 0.00 | 0.00 | 0.00 | 86 | 1007.6 |
| 20260902132004 | 14 | 148 | 0.0 | 3.2 | 0.00 | 0.00 | 0.00 | 86 | 1007.7 |
| 20260902131504 | 14 | 148 | 0.0 | 3.2 | 0.00 | 0.00 | 0.00 | 86 | 1007.8 |
| 20260902131004 | 14 | 153 | 1.6 | 3.2 | 0.00 | 0.00 | 0.00 | 86 | 1007.9 |
| 20260902130504 | 14 | 213 | 0.0 | 0.0 | 0.00 | 0.00 | 0.00 | 86 | 1008.1 |
| 20260902125504 | 14 | 213 | 0.0 | 3.2 | 0.00 | 0.00 | 0.00 | 86 | 1008.2 |
| 20260902124504 | 14 | 213 | 1.6 | 3.2 | 0.00 | 0.00 | 0.00 | 86 | 1008.4 |
| 20260902124004 | 14 | 213 | 0.0 | 0.0 | 0.00 | 0.00 | 0.00 | 86 | 1008.4 |
| 20260902123504 | 14 | 213 | 0.0 | 3.2 | 0.00 | 0.00 | 0.00 | 86 | 1008.4 |
| 20260902123005 | 14 | 213 | 1.6 | 1.6 | 0.00 | 0.00 | 0.00 | 86 | 1008.5 |
| 20260902122504 | 14 | 156 | 1.6 | 3.2 | 0.00 | 0.00 | 0.00 | 86 | 1008.5 |
| 20260902122004 | 14 | 153 | 0.0 | 0.0 | 0.00 | 0.00 | 0.00 | 86 | 1008.6 |
| 20260902121504 | 14 | 153 | 0.0 | 0.0 | 0.00 | 0.00 | 0.00 | 86 | 1008.7 |
| 20260902121004 | 14 | 153 | 0.0 | 0.0 | 0.00 | 0.00 | 0.00 | 86 | 1008.7 |
| 20260902120504 | 14 | 153 | 0.0 | 0.0 | 0.00 | 0.00 | 0.00 | 86 | 1008.8 |
| 20260902120004 | 14 | 153 | 0.0 | 0.0 | 0.00 | 0.00 | 0.00 | 85 | 1008.9 |
| 20260902115505 | 14 | 153 | 0.0 | 0.0 | 0.00 | 0.00 | 0.00 | 85 | 1008.9 |
| 20260902115004 | 14 | 153 | 0.0 | 0.0 | 0.00 | 0.00 | 0.00 | 85 | 1009.0 |
| 20260902114504 | 14 | 153 | 0.0 | 0.0 | 0.00 | 0.00 | 0.00 | 85 | 1009.1 |
| 20260902113504 | 15 | 153 | 1.6 | 3.2 | 0.00 | 0.00 | 0.00 | 85 | 1009.3 |
| 20260902113004 | 15 | 153 | 0.0 | 0.0 | 0.00 | 0.00 | 0.00 | 85 | 1009.3 |
| 20260902112504 | 15 | 153 | 0.0 | 3.2 | 0.00 | 0.00 | 0.00 | 84 | 1009.3 |
| 20260902112004 | 15 | 171 | 3.2 | 4.8 | 0.00 | 0.00 | 0.00 | 84 | 1009.4 |
| 20260902111504 | 15 | 160 | 3.2 | 4.8 | 0.00 | 0.00 | 0.00 | 84 | 1009.4 |
| 20260902110504 | 15 | 158 | 3.2 | 3.2 | 0.00 | 0.00 | 0.00 | 84 | 1009.5 |
| 20260902105504 | 15 | 141 | 1.6 | 8.0 | 0.00 | 0.00 | 0.00 | 85 | 1009.5 |
| 20260902105004 | 15 | 182 | 1.6 | 3.2 | 0.00 | 0.00 | 0.00 | 85 | 1009.5 |
| 20260902104504 | 15 | 187 | 3.2 | 4.8 | 0.00 | 0.00 | 0.00 | 85 | 1009.6 |
| 20260902104004 | 15 | 198 | 0.0 | 3.2 | 0.00 | 0.00 | 0.00 | 85 | 1009.6 |
| 20260902103504 | 15 | 198 | 1.6 | 4.8 | 0.00 | 0.00 | 0.00 | 85 | 1009.7 |
| 20260902103005 | 14 | 181 | 3.2 | 4.8 | 0.00 | 0.00 | 0.00 | 85 | 1009.7 |
| 20260902102503 | 14 | 186 | 1.6 | 4.8 | 0.00 | 0.00 | 0.00 | 85 | 1009.7 |
| 20260902102004 | 14 | 205 | 1.6 | 3.2 | 0.00 | 0.00 | 0.00 | 85 | 1009.7 |
| 20260902101504 | 14 | 191 | 3.2 | 8.0 | 0.00 | 0.00 | 0.00 | 85 | 1009.8 |
| 20260902101004 | 14 | 188 | 0.0 | 3.2 | 0.00 | 0.00 | 0.00 | 85 | 1009.6 |
| 20260902100004 | 14 | 185 | 3.2 | 4.8 | 0.00 | 0.00 | 0.00 | 85 | 1009.7 |
| 20260902095504 | 14 | 190 | 1.6 | 4.8 | 0.00 | 0.00 | 0.00 | 85 | 1009.8 |
| 20260902095004 | 14 | 202 | 3.2 | 8.0 | 0.00 | 0.00 | 0.00 | 86 | 1009.8 |
| 20260902094504 | 14 | 210 | 3.2 | 8.0 | 0.00 | 0.00 | 0.00 | 86 | 1009.8 |
| 20260902092504 | 13 | 172 | 3.2 | 8.0 | 0.00 | 0.00 | 0.00 | 86 | 1010.0 |
| 20260902091504 | 13 | 185 | 1.6 | 3.2 | 0.00 | 0.00 | 0.00 | 86 | 1010.0 |
| 20260902090504 | 13 | 188 | 1.6 | 3.2 | 0.00 | 0.00 | 0.00 | 85 | 1010.3 |
| 20260902090005 | 13 | 195 | 1.6 | 3.2 | 0.00 | 0.00 | 0.00 | 85 | 1010.4 |
| 20260902085504 | 13 | 217 | 1.6 | 1.6 | 0.00 | 0.00 | 0.00 | 84 | 1010.3 |
| 20260902085004 | 14 | 233 | 1.6 | 3.2 | 0.00 | 0.00 | 0.00 | 84 | 1010.5 |
| 20260902084504 | 14 | 217 | 1.6 | 3.2 | 0.00 | 0.00 | 0.00 | 83 | 1010.4 |
| 20260902084004 | 15 | 183 | 0.0 | 1.6 | 0.00 | 0.00 | 0.00 | 83 | 1010.4 |
| 20260902083504 | 15 | 183 | 0.0 | 3.2 | 0.00 | 0.00 | 0.00 | 83 | 1010.4 |
| 20260902083005 | 15 | 183 | 1.6 | 3.2 | 0.00 | 0.00 | 0.00 | 83 | 1010.5 |
| 20260902082504 | 15 | 192 | 1.6 | 4.8 | 0.00 | 0.00 | 0.00 | 83 | 1010.5 |
| 20260902082004 | 15 | 200 | 3.2 | 4.8 | 0.00 | 0.00 | 0.00 | 83 | 1010.5 |
| 20260902081504 | 15 | 185 | 3.2 | 9.7 | 0.00 | 0.00 | 0.00 | 83 | 1010.5 |
| 20260902081004 | 15 | 201 | 4.8 | 9.7 | 0.00 | 0.00 | 0.00 | 83 | 1010.7 |
| 20260902080004 | 15 | 210 | 6.4 | 11.3 | 0.00 | 0.00 | 0.00 | 82 | 1010.6 |
| 20260902075504 | 15 | 202 | 4.8 | 11.3 | 0.00 | 0.00 | 0.00 | 82 | 1010.7 |
| 20260902075004 | 15 | 203 | 4.8 | 9.7 | 0.00 | 0.00 | 0.00 | 82 | 1010.7 |
| 20260902074504 | 15 | 202 | 4.8 | 9.7 | 0.00 | 0.00 | 0.00 | 81 | 1010.6 |
| 20260902074004 | 16 | 346 | 4.8 | 12.9 | 0.00 | 0.00 | 0.00 | 81 | 1010.6 |
| 20260902073504 | 16 | 226 | 4.8 | 14.5 | 0.00 | 0.00 | 0.00 | 80 | 1010.6 |
| 20260902073004 | 16 | 201 | 9.7 | 14.5 | 0.00 | 0.00 | 0.00 | 80 | 1010.7 |
| 20260902072504 | 16 | 191 | 9.7 | 19.3 | 0.00 | 0.00 | 0.00 | 79 | 1010.8 |
| 20260902072004 | 16 | 161 | 9.7 | 24.1 | 0.00 | 0.00 | 0.00 | 78 | 1010.8 |
| 20260902071504 | 16 | 179 | 9.7 | 16.1 | 0.00 | 0.00 | 0.00 | 78 | 1010.9 |
| 20260902071004 | 16 | 191 | 4.8 | 14.5 | 0.00 | 0.00 | 0.00 | 78 | 1010.8 |
| 20260902070504 | 16 | 205 | 8.0 | 19.3 | 0.00 | 0.00 | 0.00 | 78 | 1010.9 |
| 20260902070006 | 16 | 188 | 9.7 | 19.3 | 0.00 | 0.00 | 0.00 | 77 | 1011.0 |
| 20260902065504 | 16 | 165 | 6.4 | 11.3 | 0.00 | 0.00 | 0.00 | 77 | 1011.0 |
| 20260902065005 | 16 | 192 | 8.0 | 14.5 | 0.00 | 0.00 | 0.00 | 77 | 1011.0 |
| 20260902064504 | 16 | 194 | 8.0 | 14.5 | 0.00 | 0.00 | 0.00 | 77 | 1011.1 |
| 20260902064004 | 16 | 204 | 4.8 | 11.3 | 0.00 | 0.00 | 0.00 | 77 | 1011.0 |
| 20260902063005 | 16 | 204 | 3.2 | 8.0 | 0.00 | 0.00 | 0.00 | 77 | 1011.0 |
| 20260902062504 | 16 | 194 | 3.2 | 8.0 | 0.00 | 0.00 | 0.00 | 77 | 1011.0 |
| 20260902062004 | 16 | 217 | 3.2 | 8.0 | 0.00 | 0.00 | 0.00 | 77 | 1011.0 |
| 20260902061005 | 16 | 204 | 3.2 | 9.7 | 0.00 | 0.00 | 0.00 | 78 | 1011.0 |
| 20260902060004 | 16 | 183 | 0.0 | 3.2 | 0.00 | 0.00 | 0.00 | 78 | 1010.9 |
| 20260902055503 | 16 | 182 | 1.6 | 3.2 | 0.00 | 0.00 | 0.00 | 78 | 1011.0 |
| 20260902055004 | 16 | 163 | 1.6 | 3.2 | 0.00 | 0.00 | 0.00 | 78 | 1011.1 |
| 20260902054004 | 16 | 178 | 1.6 | 3.2 | 0.00 | 0.00 | 0.00 | 78 | 1011.2 |
| 20260902053504 | 16 | 194 | 1.6 | 3.2 | 0.00 | 0.00 | 0.00 | 78 | 1011.1 |
| 20260902053004 | 16 | 221 | 3.2 | 3.2 | 0.00 | 0.00 | 0.00 | 77 | 1011.2 |
| 20260902052504 | 16 | 223 | 1.6 | 3.2 | 0.00 | 0.00 | 0.00 | 76 | 1011.2 |
| 20260902051503 | 16 | 196 | 1.6 | 3.2 | 0.00 | 0.00 | 0.00 | 76 | 1011.3 |
| 20260902051004 | 16 | 206 | 1.6 | 3.2 | 0.00 | 0.00 | 0.00 | 75 | 1011.3 |
| 20260902050504 | 16 | 293 | 1.6 | 3.2 | 0.00 | 0.00 | 0.00 | 75 | 1011.3 |
| 20260902050007 | 16 | 209 | 1.6 | 4.8 | 0.00 | 0.00 | 0.00 | 75 | 1011.3 |
| 20260902045504 | 16 | 185 | 3.2 | 9.7 | 0.00 | 0.00 | 0.00 | 74 | 1011.3 |
| 20260902044003 | 16 | 207 | 1.6 | 8.0 | 0.00 | 0.00 | 0.00 | 73 | 1011.3 |
| 20260902043504 | 16 | 218 | 3.2 | 4.8 | 0.00 | 0.00 | 0.00 | 73 | 1011.4 |
| 20260902043004 | 16 | 246 | 3.2 | 8.0 | 0.00 | 0.00 | 0.00 | 73 | 1011.5 |
| 20260902042004 | 16 | 244 | 3.2 | 9.7 | 0.00 | 0.00 | 0.00 | 73 | 1011.5 |
| 20260902041505 | 16 | 248 | 4.8 | 9.7 | 0.00 | 0.00 | 0.00 | 73 | 1011.5 |
| 20260902041004 | 16 | 263 | 4.8 | 11.3 | 0.00 | 0.00 | 0.00 | 73 | 1011.6 |
| 20260902040504 | 16 | 247 | 1.6 | 8.0 | 0.00 | 0.00 | 0.00 | 73 | 1011.6 |
| 20260902040004 | 16 | 338 | 1.6 | 4.8 | 0.00 | 0.00 | 0.00 | 73 | 1011.5 |
| 20260902035504 | 16 | 273 | 1.6 | 4.8 | 0.00 | 0.00 | 0.00 | 73 | 1011.5 |
| 20260902035004 | 17 | 0 | 3.2 | 4.8 | 0.00 | 0.00 | 0.00 | 73 | 1011.4 |
| 20260902034504 | 17 | 0 | 3.2 | 4.8 | 0.00 | 0.00 | 0.00 | 73 | 1011.3 |
| 20260902033504 | 17 | 229 | 4.8 | 8.0 | 0.00 | 0.00 | 0.00 | 72 | 1011.2 |
| 20260902033004 | 17 | 237 | 3.2 | 4.8 | 0.00 | 0.00 | 0.00 | 72 | 1011.3 |
| 20260902032503 | 17 | 233 | 3.2 | 9.7 | 0.00 | 0.00 | 0.00 | 71 | 1011.2 |
| 20260902032004 | 17 | 239 | 4.8 | 11.3 | 0.00 | 0.00 | 0.00 | 71 | 1011.2 |
| 20260902031503 | 17 | 230 | 6.4 | 11.3 | 0.00 | 0.00 | 0.00 | 70 | 1011.2 |
| 20260902031004 | 17 | 233 | 8.0 | 12.9 | 0.00 | 0.00 | 0.00 | 70 | 1011.2 |
| 20260902030503 | 17 | 208 | 3.2 | 8.0 | 0.00 | 0.00 | 0.00 | 70 | 1011.2 |
| 20260902030004 | 17 | 212 | 3.2 | 8.0 | 0.00 | 0.00 | 0.00 | 70 | 1011.3 |
| 20260902025504 | 18 | 225 | 4.8 | 12.9 | 0.00 | 0.00 | 0.00 | 69 | 1011.2 |
| 20260902025004 | 18 | 209 | 4.8 | 12.9 | 0.00 | 0.00 | 0.00 | 68 | 1011.2 |
| 20260902024504 | 18 | 199 | 6.4 | 14.5 | 0.00 | 0.00 | 0.00 | 68 | 1011.2 |
| 20260902023504 | 18 | 197 | 4.8 | 9.7 | 0.00 | 0.00 | 0.00 | 68 | 1011.2 |
| 20260902023003 | 18 | 190 | 3.2 | 4.8 | 0.00 | 0.00 | 0.00 | 67 | 1011.0 |
| 20260902022503 | 18 | 201 | 4.8 | 8.0 | 0.00 | 0.00 | 0.00 | 68 | 1011.0 |
| 20260902022003 | 18 | 202 | 3.2 | 11.3 | 0.00 | 0.00 | 0.00 | 67 | 1011.1 |
| 20260902021504 | 18 | 214 | 3.2 | 9.7 | 0.00 | 0.00 | 0.00 | 67 | 1011.1 |
| 20260902021004 | 18 | 228 | 4.8 | 11.3 | 0.00 | 0.00 | 0.00 | 67 | 1011.1 |
| 20260902015503 | 18 | 237 | 4.8 | 9.7 | 0.00 | 0.00 | 0.00 | 68 | 1011.0 |
| 20260902015004 | 18 | 232 | 1.6 | 9.7 | 0.00 | 0.00 | 0.00 | 70 | 1011.0 |
| 20260902014503 | 18 | 208 | 3.2 | 4.8 | 0.00 | 0.00 | 0.00 | 69 | 1011.0 |
| 20260902013503 | 18 | 221 | 4.8 | 8.0 | 0.00 | 0.00 | 0.00 | 70 | 1011.1 |
| 20260902013003 | 18 | 139 | 0.0 | 3.2 | 0.00 | 0.00 | 0.00 | 74 | 1011.0 |
| 20260902012504 | 18 | 134 | 1.6 | 3.2 | 0.00 | 0.00 | 0.00 | 75 | 1011.0 |
| 20260902012004 | 18 | 355 | 0.0 | 3.2 | 0.00 | 0.00 | 0.00 | 75 | 1010.9 |
| 20260902011504 | 18 | 323 | 1.6 | 3.2 | 0.00 | 0.00 | 0.00 | 75 | 1011.0 |
| 20260902005505 | 18 | 243 | 4.8 | 8.0 | 0.00 | 0.00 | 0.00 | 71 | 1010.9 |
| 20260902005005 | 18 | 212 | 8.0 | 16.1 | 0.00 | 0.00 | 0.00 | 72 | 1010.9 |
| 20260902004005 | 18 | 245 | 4.8 | 12.9 | 0.00 | 0.00 | 0.00 | 72 | 1010.8 |
| 20260902003505 | 18 | 245 | 6.4 | 11.3 | 0.00 | 0.00 | 0.00 | 72 | 1010.8 |
| 20260902002505 | 18 | 216 | 3.2 | 4.8 | 0.00 | 0.00 | 0.00 | 72 | 1010.8 |
| 20260902002005 | 18 | 196 | 1.6 | 3.2 | 0.00 | 0.00 | 0.00 | 71 | 1010.8 |
| 20260902001505 | 18 | 189 | 1.6 | 3.2 | 0.00 | 0.00 | 0.00 | 70 | 1010.8 |
| 20260902001005 | 18 | 271 | 1.6 | 4.8 | 0.00 | 0.00 | 0.00 | 71 | 1010.8 |
| 20260902000005 | 18 | 232 | 4.8 | 9.7 | 0.00 | 0.00 | 0.00 | 72 | 1010.8 |
| 20260901235505 | 18 | 326 | 3.2 | 11.3 | 0.00 | 0.00 | 0.00 | 74 | 1010.8 |
| 20260901235005 | 18 | 281 | 4.8 | 11.3 | 0.00 | 0.00 | 0.00 | 74 | 1010.8 |
| 20260901234505 | 18 | 263 | 8.0 | 12.9 | 0.00 | 0.00 | 0.00 | 73 | 1011.0 |
| 20260901234006 | 18 | 260 | 8.0 | 16.1 | 0.00 | 0.00 | 0.00 | 73 | 1011.0 |
| 20260901233505 | 18 | 278 | 4.8 | 16.1 | 0.00 | 0.00 | 0.00 | 73 | 1011.0 |
| 20260901233005 | 18 | 218 | 9.7 | 16.1 | 0.00 | 0.00 | 0.00 | 72 | 1011.1 |
| 20260901232505 | 18 | 228 | 11.3 | 19.3 | 0.00 | 0.00 | 0.00 | 72 | 1011.0 |
| 20260901231505 | 18 | 240 | 9.7 | 16.1 | 0.00 | 0.00 | 0.00 | 70 | 1011.0 |
| 20260901231005 | 19 | 244 | 8.0 | 20.9 | 0.00 | 0.00 | 0.00 | 69 | 1011.0 |
| 20260901230506 | 20 | 247 | 14.5 | 22.5 | 0.00 | 0.00 | 0.00 | 68 | 1011.0 |
| 20260901230005 | 20 | 209 | 8.0 | 20.9 | 0.00 | 0.00 | 0.00 | 66 | 1011.0 |
| 20260901225505 | 20 | 174 | 8.0 | 19.3 | 0.00 | 0.00 | 0.00 | 66 | 1011.0 |
| 20260901224505 | 20 | 182 | 11.3 | 20.9 | 0.00 | 0.00 | 0.00 | 66 | 1011.0 |
| 20260901224004 | 19 | 168 | 11.3 | 19.3 | 0.00 | 0.00 | 0.00 | 66 | 1011.0 |
| 20260901223505 | 19 | 191 | 4.8 | 11.3 | 0.00 | 0.00 | 0.00 | 68 | 1011.0 |
| 20260901223006 | 19 | 216 | 4.8 | 11.3 | 0.00 | 0.00 | 0.00 | 67 | 1011.1 |
| 20260901222505 | 19 | 199 | 8.0 | 16.1 | 0.00 | 0.00 | 0.00 | 67 | 1011.1 |
| 20260901222005 | 19 | 201 | 8.0 | 14.5 | 0.00 | 0.00 | 0.00 | 67 | 1011.1 |
| 20260901221505 | 19 | 207 | 6.4 | 14.5 | 0.00 | 0.00 | 0.00 | 66 | 1011.0 |
| 20260901221005 | 20 | 191 | 9.7 | 22.5 | 0.00 | 0.00 | 0.00 | 66 | 1011.0 |
| 20260901220505 | 20 | 173 | 11.3 | 16.1 | 0.00 | 0.00 | 0.00 | 66 | 1010.9 |
| 20260901220005 | 20 | 197 | 9.7 | 16.1 | 0.00 | 0.00 | 0.00 | 66 | 1010.9 |
| 20260901215504 | 20 | 177 | 8.0 | 16.1 | 0.00 | 0.00 | 0.00 | 67 | 1010.9 |
| 20260901215005 | 20 | 199 | 8.0 | 12.9 | 0.00 | 0.00 | 0.00 | 68 | 1010.9 |
| 20260901214505 | 20 | 152 | 8.0 | 12.9 | 0.00 | 0.00 | 0.00 | 67 | 1010.9 |
| 20260901213505 | 20 | 169 | 6.4 | 19.3 | 0.00 | 0.00 | 0.00 | 68 | 1010.9 |
| 20260901213005 | 19 | 195 | 8.0 | 14.5 | 0.00 | 0.00 | 0.00 | 70 | 1010.9 |
| 20260901212504 | 19 | 173 | 9.7 | 16.1 | 0.00 | 0.00 | 0.00 | 70 | 1010.9 |
| 20260901212005 | 18 | 171 | 9.7 | 20.9 | 0.00 | 0.00 | 0.00 | 71 | 1011.0 |
| 20260901211505 | 18 | 124 | 4.8 | 12.9 | 0.00 | 0.00 | 0.00 | 72 | 1011.0 |
| 20260901211005 | 18 | 125 | 4.8 | 19.3 | 0.00 | 0.00 | 0.00 | 72 | 1011.0 |
| 20260901210505 | 19 | 158 | 11.3 | 22.5 | 0.00 | 0.00 | 0.00 | 70 | 1011.0 |
| 20260901210006 | 19 | 141 | 4.8 | 14.5 | 0.00 | 0.00 | 0.00 | 69 | 1011.0 |
| 20260901205505 | 19 | 196 | 9.7 | 16.1 | 0.00 | 0.00 | 0.00 | 69 | 1011.0 |
| 20260901205005 | 18 | 167 | 8.0 | 11.3 | 0.00 | 0.00 | 0.00 | 69 | 1011.0 |
| 20260901204505 | 18 | 206 | 6.4 | 12.9 | 0.00 | 0.00 | 0.00 | 69 | 1011.0 |
| 20260901204005 | 18 | 151 | 9.7 | 19.3 | 0.00 | 0.00 | 0.00 | 69 | 1011.1 |
| 20260901203504 | 18 | 171 | 8.0 | 12.9 | 0.00 | 0.00 | 0.00 | 68 | 1011.1 |
| 20260901203005 | 18 | 196 | 6.4 | 12.9 | 0.00 | 0.00 | 0.00 | 68 | 1011.1 |
| 20260901202505 | 19 | 183 | 8.0 | 20.9 | 0.00 | 0.00 | 0.00 | 68 | 1011.1 |
| 20260901202005 | 19 | 176 | 9.7 | 16.1 | 0.00 | 0.00 | 0.00 | 68 | 1011.1 |
| 20260901201505 | 19 | 186 | 8.0 | 12.9 | 0.00 | 0.00 | 0.00 | 68 | 1011.2 |
| 20260901201005 | 19 | 162 | 1.6 | 11.3 | 0.00 | 0.00 | 0.00 | 69 | 1011.2 |
| 20260901200504 | 18 | 196 | 4.8 | 12.9 | 0.00 | 0.00 | 0.00 | 70 | 1011.2 |
| 20260901200005 | 19 | 136 | 11.3 | 20.9 | 0.00 | 0.00 | 0.00 | 69 | 1011.2 |
| 20260901195505 | 19 | 96 | 1.6 | 8.0 | 0.00 | 0.00 | 0.00 | 69 | 1011.2 |
| 20260901195004 | 19 | 197 | 3.2 | 8.0 | 0.00 | 0.00 | 0.00 | 70 | 1011.2 |
| 20260901194505 | 18 | 150 | 3.2 | 8.0 | 0.00 | 0.00 | 0.00 | 70 | 1011.3 |
| 20260901194005 | 18 | 206 | 3.2 | 9.7 | 0.00 | 0.00 | 0.00 | 70 | 1011.4 |
| 20260901193505 | 18 | 211 | 6.4 | 11.3 | 0.00 | 0.00 | 0.00 | 70 | 1011.4 |
| 20260901193005 | 18 | 183 | 8.0 | 11.3 | 0.00 | 0.00 | 0.00 | 71 | 1011.5 |
| 20260901192005 | 18 | 204 | 8.0 | 14.5 | 0.00 | 0.00 | 0.00 | 72 | 1011.6 |
| 20260901191505 | 18 | 190 | 8.0 | 11.3 | 0.00 | 0.00 | 0.00 | 72 | 1011.6 |
| 20260901191005 | 18 | 201 | 4.8 | 9.7 | 0.00 | 0.00 | 0.00 | 73 | 1011.6 |
| 20260901190505 | 18 | 162 | 8.0 | 11.3 | 0.00 | 0.00 | 0.00 | 73 | 1011.6 |
| 20260901190005 | 18 | 153 | 8.0 | 12.9 | 0.00 | 0.00 | 0.00 | 74 | 1011.8 |
| 20260901185505 | 18 | 131 | 8.0 | 16.1 | 0.00 | 0.00 | 0.00 | 74 | 1011.8 |
| 20260901184505 | 18 | 199 | 6.4 | 12.9 | 0.00 | 0.00 | 0.00 | 74 | 1012.0 |
| 20260901184004 | 18 | 175 | 9.7 | 16.1 | 0.00 | 0.00 | 0.00 | 73 | 1011.9 |
| 20260901183505 | 18 | 197 | 4.8 | 12.9 | 0.00 | 0.00 | 0.00 | 72 | 1011.9 |
| 20260901183005 | 18 | 175 | 4.8 | 14.5 | 0.00 | 0.00 | 0.00 | 73 | 1011.9 |
| 20260901182505 | 18 | 137 | 6.4 | 12.9 | 0.00 | 0.00 | 0.00 | 72 | 1012.0 |
| 20260901182005 | 18 | 173 | 8.0 | 19.3 | 0.00 | 0.00 | 0.00 | 72 | 1011.9 |
| 20260901181505 | 18 | 162 | 4.8 | 12.9 | 0.00 | 0.00 | 0.00 | 72 | 1012.0 |
| 20260901181005 | 18 | 104 | 8.0 | 16.1 | 0.00 | 0.00 | 0.00 | 73 | 1012.0 |
| 20260901180505 | 17 | 195 | 9.7 | 12.9 | 0.00 | 0.00 | 0.00 | 75 | 1011.9 |
| 20260901175505 | 17 | 154 | 8.0 | 14.5 | 0.00 | 0.00 | 0.00 | 76 | 1011.9 |
| 20260901175005 | 17 | 134 | 9.7 | 14.5 | 0.00 | 0.00 | 0.00 | 75 | 1011.9 |
| 20260901174505 | 17 | 138 | 6.4 | 14.5 | 0.00 | 0.00 | 0.00 | 76 | 1011.9 |
| 20260901174008 | 17 | 190 | 8.0 | 19.3 | 0.00 | 0.00 | 0.00 | 76 | 1011.9 |
| 20260901173504 | 17 | 132 | 9.7 | 19.3 | 0.00 | 0.00 | 0.00 | 77 | 1011.9 |
| 20260901173005 | 17 | 132 | 4.8 | 12.9 | 0.00 | 0.00 | 0.00 | 78 | 1011.9 |
| 20260901172005 | 17 | 186 | 8.0 | 12.9 | 0.00 | 0.00 | 0.00 | 78 | 1012.0 |
| 20260901171504 | 16 | 188 | 8.0 | 14.5 | 0.00 | 0.00 | 0.00 | 78 | 1011.9 |
| 20260901171004 | 16 | 164 | 8.0 | 14.5 | 0.00 | 0.00 | 0.00 | 79 | 1011.9 |
| 20260901170505 | 16 | 188 | 9.7 | 14.5 | 0.00 | 0.00 | 0.00 | 80 | 1011.8 |
| 20260901170005 | 16 | 206 | 8.0 | 11.3 | 0.00 | 0.00 | 0.00 | 80 | 1011.8 |
| 20260901165505 | 16 | 205 | 9.7 | 14.5 | 0.00 | 0.00 | 0.00 | 80 | 1011.8 |
| 20260901165005 | 16 | 206 | 6.4 | 14.5 | 0.00 | 0.00 | 0.00 | 81 | 1011.8 |